Location: *
(40.6825°S, 106.0294°E)
Time: 20:01:54
(UTC+00:00)

Daily predictions for brighter satellites

Satellite Brightness Start Highest point End
(mag) Time Altitude Azimuth Time Altitude Azimuth Time Altitude Azimuth
Cosmos 2219 Rocket 2.2 12:12:53 10° SSW 12:18:36 79° ESE 12:24:12 10° NNE
Cosmos 2242 Rocket 4.5 12:15:09 10° SSE 12:19:13 32° ESE 12:23:11 10° NE
Cosmos 2227 Rocket 3.0 12:17:38 10° NNE 12:22:27 29° ENE 12:27:18 10° SE
Cosmos 2297 Rocket 2.9 12:17:37 10° NNE 12:22:34 32° ENE 12:27:35 10° SE
DMSP B5D2-2 4.1 12:21:06 10° NNE 12:26:20 76° ESE 12:31:41 10° S
Cosmos 1470 Rocket 3.6 12:26:23 10° N 12:30:49 70° E 12:35:15 10° SSE
Nadezhda 4 Rocket 4.0 12:25:14 10° S 12:31:29 85° E 12:37:41 10° N
Cosmos 1634 Rocket 4.3 12:27:46 10° NNE 12:33:37 46° E 12:39:34 10° SSE
STARLINK-46 4.2 12:31:15 10° SW 12:34:17 33° SSE 12:37:17 10° E
Cosmos 1862 Rocket 3.6 12:30:56 10° S 12:35:29 79° E 12:39:55 10° N
HJ-1C 3.6 12:36:28 10° SSE 12:39:51 49° E 12:43:08 10° N
Lacrosse 5 rocket 2.3 12:35:21 10° SW 12:39:54 45° SE 12:44:05 12° ENE
Cosmos 2251 Rocket 3.8 12:34:36 10° SSW 12:39:57 59° ESE 12:45:16 10° NNE
SL-16 R/B 3.9 12:36:18 10° S 12:40:22 20° SE 12:44:24 10° E
NOAA 11 4.2 12:35:35 10° SSE 12:41:09 75° ENE 12:46:36 10° N
SL-24 R/B 4.3 12:43:52 10° NE 12:47:39 44° ESE 12:51:17 10° S
Cosmos 2082 4.5 12:45:13 10° NNE 12:50:07 31° ENE 12:55:06 10° SE
SJ-6B 3.9 12:48:03 10° SE 12:51:14 24° E 12:53:24 15° NE
COSMOS 2428 3.5 12:49:36 10° SSW 12:55:11 53° WNW 13:00:41 10° N
SeaSat 1 2.4 12:50:46 10° SSE 12:55:45 67° ENE 13:00:41 10° NNW
Cosmos 2279 Rocket 4.4 12:51:45 10° NNE 12:57:37 43° E 13:03:32 10° SSE
BREEZE-M DEB (TANK) 3.0 12:56:05 10° WSW 12:58:43 38° NNW 13:02:50 14° NNE
Cosmos 2026 Rocket 4.1 12:52:29 10° S 12:58:55 63° E 13:05:09 10° NNE
STARLINK-67 4.2 12:59:00 10° WSW 13:01:30 27° NW 13:03:15 15° N
ATLAS 5 CENTAUR R/B 3.6 12:57:31 10° NNE 13:03:04 25° ENE 13:08:23 10° ESE
CZ-2C R/B 2.7 12:58:00 10° N 13:03:13 78° WNW 13:08:37 10° SSW
MOS 1 4.5 12:59:21 10° SSE 13:04:58 52° E 13:10:29 10° N
USA 186 1.7 13:02:36 10° SSE 13:05:09 39° E 13:06:04 27° NNE
NOSS 0 Rocket 4.0 13:00:04 10° SSW 13:06:17 78° WNW 13:11:55 13° NNE
SL-4 R/B 3.3 13:04:02 10° WSW 13:06:56 25° NW 13:09:21 13° N
Cosmos 2237 Rocket 2.2 13:05:08 10° SSW 13:10:52 80° ESE 13:15:14 18° NNE
Cosmos 1092 Rocket 4.2 13:05:59 10° S 13:12:15 73° W 13:18:30 10° N
Cosmos 1340 4.2 13:18:22 19° E 13:18:25 19° E 13:21:11 10° SE
Cosmos 1607 4.3 13:14:58 10° N 13:20:57 43° ENE 13:26:59 10° SE
EO 1 Del DPAF 3.9 13:19:38 26° ENE 13:21:08 38° ESE 13:24:43 10° S
Shenzhou-11 Module 4.4 13:20:34 10° NW 13:21:19 11° NW 13:21:50 10° NNW
Meteor 1-25 Rocket 4.3 13:15:36 10° N 13:21:28 83° E 13:27:25 10° S
MOS 1 Rocket 3.6 13:17:54 16° NNE 13:22:14 81° ESE 13:27:48 10° S
USA 234 3.4 13:19:07 19° NE 13:24:01 73° NW 13:30:39 10° SW
Meteor 1-18 Rocket 4.4 13:21:38 10° S 13:27:30 64° ESE 13:31:16 23° NNE
Ariane Rocket 3.6 13:23:28 10° S 13:28:34 60° WSW 13:33:36 10° NNW
BREEZE-M DEB (TANK) 4.5 13:28:04 10° SW 13:31:08 37° SE 13:36:57 14° E
Cosmos 2084 3.8 13:29:07 21° N 13:31:28 40° ENE 13:35:28 10° SE
Meteor 1-20 Rocket 4.3 13:26:10 10° NNW 13:31:51 81° W 13:37:29 10° S
SPOT 3 Rocket 3.6 13:28:34 10° SSE 13:33:45 58° E 13:37:20 20° N
Cosmos 1980 4.1 13:29:39 10° SSW 13:35:17 60° WNW 13:39:19 19° N
Okean 1-7 3.1 13:33:18 10° SSW 13:37:41 74° W 13:40:17 23° N
SL-24 R/B - RUBIN 2 4.2 13:31:34 10° NNW 13:37:46 89° NE 13:43:18 10° SSE
H-2A R/B 2.1 13:32:50 10° SSE 13:38:10 70° ENE 13:42:23 17° N
Meteor 1-14 Rocket 4.2 13:32:43 10° N 13:38:36 82° E 13:44:24 10° SSE
Delta 2 Rocket 3.8 13:40:03 10° WNW 13:43:14 32° NNW 13:43:14 32° NNW
Cosmos 2221 Rocket 3.8 13:39:37 10° S 13:44:08 55° E 13:45:35 38° NE
RESURS DK-1 3.8 13:41:43 10° SW 13:45:28 32° WNW 13:47:52 18° NNW
CZ-2C R/B 3.4 13:39:47 10° SSE 13:45:35 57° E 13:48:49 26° N
Resurs 01 Rocket 2.2 13:43:40 10° SSE 13:47:55 38° E 13:48:23 37° ENE
Thor Agena Rocket 3.5 13:47:25 32° NNE 13:49:52 78° ESE 13:55:09 10° SSW
Cosmos 1371 Rocket 3.9 13:47:56 15° NNW 13:52:20 80° ENE 13:57:40 10° SSE
Cosmos 1515 4.0 13:56:02 10° S 13:59:51 48° E 13:59:58 48° E
IRIDIUM 104 4.3 13:54:32 10° S 13:59:53 88° E 14:02:15 34° N
Cosmos 1602 4.4 13:59:08 23° NNW 14:01:22 53° W 14:05:17 10° S
Molniya-1T 3.9 13:57:44 10° SW 14:01:22 74° NW 14:03:06 38° NNE
Lacrosse 5 4.1 14:00:24 10° SSW 14:04:00 19° SSE 14:07:36 10° ESE
Cosmos 2227 Rocket 3.6 14:01:02 10° NW 14:06:19 39° WSW 14:11:39 10° S
Cosmos 2297 Rocket 3.7 14:01:16 10° NW 14:06:30 37° WSW 14:11:47 10° S
CZ-4C R/B 3.6 14:03:33 10° SSW 14:08:16 25° SE 14:10:37 18° ESE
Cosmos 1140 Rocket 3.7 14:03:41 10° SSW 14:08:55 59° ESE 14:10:12 46° ENE
IRIDIUM 114 4.4 14:03:44 10° S 14:09:03 76° W 14:11:24 34° N
Cosmos 1500 3.9 14:09:50 40° ESE 14:09:50 40° ESE 14:12:49 10° SSE
ARGOS 3.4 14:05:12 10° S 14:10:40 71° WSW 14:14:45 18° NNW
MetOp-A 4.0 14:05:19 10° SSE 14:10:46 73° ENE 14:12:45 40° N
Okean 1 4.3 14:08:26 10° SSW 14:12:21 43° W 14:13:45 31° NW
STARLINK-52 4.1 14:10:58 10° SW 14:14:22 40° SSE 14:14:33 40° SE
Cosmos 1536 3.9 14:18:15 33° ESE 14:18:15 33° ESE 14:21:06 10° SSE
Lacrosse 5 rocket 2.9 14:14:55 10° WSW 14:18:58 29° WNW 14:19:45 27° NW
Cosmos 2266 Rocket 3.9 14:14:32 10° S 14:20:42 88° E 14:22:53 43° N
Iridium 4 Rocket 4.5 14:17:36 10° SSE 14:21:03 27° ESE 14:21:03 27° ESE
FALCON 9 R/B 2.9 14:05:27 10° W 14:22:07 57° N 14:23:58 43° NE
SL-16 R/B 2.3 14:19:21 10° SSW 14:25:02 68° WNW 14:26:40 46° N
STARLINK-60 3.9 14:24:29 10° SW 14:27:14 52° SW 14:27:14 52° SW
Cosmos 1603 4.5 14:22:47 10° S 14:28:02 38° ESE 14:29:13 34° E
STARLINK-29 3.9 14:24:54 10° SW 14:28:01 52° S 14:28:01 52° S
Cosmos 2263 Rocket 2.9 14:30:48 37° E 14:30:48 37° E 14:35:22 10° SE
Cosmos 1346 Rocket 3.3 14:29:34 49° WNW 14:30:11 56° W 14:34:15 10° S
Cosmos 1023 Rocket 4.4 14:25:37 10° SSW 14:30:56 86° WNW 14:31:50 62° N
Resurs 1-3 4.3 14:26:52 10° S 14:31:13 52° WSW 14:32:54 33° NW
ERS-1 Rocket 4.4 14:27:39 10° SE 14:30:42 23° ESE 14:30:42 23° ESE
Mayak -1.2 14:33:18 73° SE 14:33:18 73° SE 14:37:21 10° S
Cosmos 1943 4.3 14:28:15 10° S 14:33:23 32° ESE 14:34:40 29° E
Landsat 4 4.1 14:38:29 61° S 14:38:29 61° S 14:41:46 10° S
USA 81 4.3 14:33:11 10° S 14:38:31 66° W 14:39:50 48° NNW
SPOT 5 4.5 14:35:23 10° SE 14:38:49 24° ESE 14:38:49 24° ESE
TRAILBLAZER 4.5 14:41:16 82° WSW 14:41:17 82° WSW 14:45:49 10° SSE
Cosmos 407 Rocket 4.2 14:37:56 10° SSW 14:42:56 45° WNW 14:44:00 40° NW
FALCON 9 DEB 4.4 14:40:16 10° SW 14:42:43 41° SW 14:42:43 41° SW
Cosmos 1733 Rocket 3.8 14:43:47 44° WNW 14:44:36 50° W 14:48:59 10° S
SPOT 1/Viking Rocket 4.4 14:40:15 10° SSE 14:44:13 35° ESE 14:44:13 35° ESE
ATLAS 5 CENTAUR R/B 2.9 14:40:22 10° NW 14:47:28 70° SW 14:54:02 10° SSE
Cosmos 1553 Rocket 4.5 14:47:10 43° E 14:47:38 44° E 14:53:43 10° SSE
ARGOS Delta rocket 4.3 14:46:29 10° SSE 14:50:12 47° SE 14:50:12 47° SE
Cosmos 1975 Rocket 4.5 14:48:59 10° SSE 14:52:13 29° SE 14:52:13 29° SE
Cosmos 1666 4.2 14:58:19 32° SSE 14:58:19 32° SSE 15:00:31 10° SSE
Cosmos 2227 4.1 15:00:40 65° NW 15:01:34 84° WSW 15:07:17 10° SSE
Meteor 1-23 Rocket 4.0 14:59:21 10° S 15:05:03 81° E 15:05:17 79° ENE
Cosmos 676 Rocket 4.4 15:01:23 10° SSW 15:06:39 55° WNW 15:06:54 54° WNW
Cosmos 1674 Rocket 4.5 15:06:27 10° SSW 15:10:20 42° W 15:10:20 42° W
Cosmos 1417 Rocket 4.4 15:13:55 67° ENE 15:14:10 68° E 15:20:22 10° SSE
Cosmos 1741 Rocket 4.2 15:09:03 10° SSW 15:14:14 64° ESE 15:14:14 64° ESE
Helios 1B rocket 3.9 15:16:23 31° SE 15:16:23 31° SE 15:19:07 10° S
Cosmos 1244 Rocket 4.3 15:12:08 10° S 15:18:22 82° W 15:18:58 73° NNW
Cosmos 1932 4.3 15:19:24 75° N 15:19:58 85° ENE 15:26:19 10° SSE
Terra 3.1 15:15:39 10° SSE 15:18:39 31° SE 15:18:39 31° SE
Cosmos 1809 Rocket 4.5 15:16:07 10° S 15:22:21 64° E 15:22:36 63° E
Resurs 01 Rocket 3.9 15:20:44 10° SSW 15:24:07 21° WSW 15:25:58 16° W
Cosmos 1452 Rocket 4.5 15:32:26 38° W 15:33:30 43° WSW 15:38:34 10° S
BREEZE-M DEB (TANK) 4.4 15:31:43 10° WSW 15:36:14 77° SSE 15:51:54 10° ENE
Gbstr 26 Del rocket 4.1 15:34:27 10° SW 15:42:31 89° NNW 15:43:23 72° NE
CZ-4 R/B 4.5 15:48:05 55° SSE 15:48:05 55° SSE 15:52:19 10° S
Lacrosse 5 2.4 15:42:47 10° SW 15:47:19 57° S 15:47:19 57° S
Cosmos 1745 Rocket 3.8 15:42:49 10° S 15:49:05 89° ESE 15:49:06 89° ENE
SL-08 ROCKET BODY 4.4 15:46:29 10° S 15:52:08 70° ESE 15:52:08 70° ESE
CZ-4C R/B 2.9 15:51:50 10° SW 15:55:47 41° WSW 15:55:47 41° WSW
S3M 4.1 16:04:11 61° W 16:04:25 62° W 16:10:35 10° S
NOSS 2-1 (E) 4.5 15:57:30 10° SW 16:05:37 86° SE 16:05:44 85° E
ERS-1 Rocket 4.1 16:06:00 10° S 16:10:42 38° WSW 16:10:42 38° WSW
Cosmos 2263 Rocket 3.6 16:12:26 27° W 16:14:06 31° WSW 16:19:09 10° S
Cosmos 1943 4.3 16:12:11 10° SW 16:16:28 35° W 16:16:28 35° W
SPOT 5 4.0 16:12:56 10° S 16:17:59 41° WSW 16:18:03 41° WSW
Meteor 1-21 4.4 16:12:50 10° S 16:17:47 69° S 16:17:47 69° S
Meteor 1-12 Rocket 4.5 16:23:52 66° SE 16:23:52 66° SE 16:28:54 10° SSE
Resurs 1-4 Rocket 4.1 16:27:10 18° ESE 16:28:12 19° ESE 16:31:46 10° SSE
ALOS 2 4.4 16:46:15 10° SSE 16:48:39 27° SE 16:48:39 27° SE
Cosmos 2278 Rocket 3.7 16:54:28 26° E 16:54:28 26° E 16:58:08 10° SE
Terra 3.7 16:54:00 10° SSW 16:57:32 22° WSW 16:57:32 22° WSW
Cosmos 1844 Rocket 3.1 16:58:43 59° SW 16:58:43 59° SW 17:03:55 10° SSE
CZ-2D R/B 3.3 17:00:17 34° E 17:00:49 35° ESE 17:05:47 10° S
Meteor 2-15 4.4 17:10:10 79° SW 17:10:10 79° SW 17:16:11 10° S
Cosmos 1844 4.1 17:16:01 55° SW 17:16:01 55° SW 17:21:10 10° SSE
USA 215 3.1 17:16:49 10° SE 17:23:29 78° NE 17:23:40 77° NNE
Cosmos 1354 Rocket 4.4 17:18:24 10° SSW 17:23:00 64° S 17:23:00 64° S
Cosmos 1503 Rocket 4.4 17:23:57 10° SSW 17:28:20 59° SSW 17:28:20 59° SSW
Cosmos 1610 Rocket 4.5 17:23:07 10° S 17:29:28 77° E 17:29:46 75° ENE
ADEOS II 3.8 17:39:23 21° E 17:41:29 27° ESE 17:45:54 10° S
NPP 3.7 17:42:51 76° SE 17:42:51 76° SE 17:48:08 10° S
Cosmos 1455 Rocket 4.0 17:45:40 47° S 17:45:40 47° S 17:48:58 10° S
CENTAUR R/B 3.2 17:45:22 51° NE 17:46:26 55° ENE 17:53:27 10° SE
USA 238 DEB 3.9 17:48:29 57° WNW 17:49:57 71° SW 17:57:16 10° SSE
USA 238 3.9 17:48:36 58° WNW 17:50:04 72° SW 17:57:23 10° SSE
Cosmos 2154 Rocket 3.8 17:43:53 10° S 17:50:11 81° W 17:50:22 80° NW
COSMOS 2406 3.2 17:44:41 10° SSW 17:50:02 75° SW 17:50:02 75° SW
Cosmos 1544 Rocket 4.3 17:53:16 52° S 17:53:16 52° S 17:56:44 10° S
Cosmos 2184 Rocket 4.5 17:48:29 10° SSW 17:54:11 46° W 17:54:11 46° W
USA 267 4.3 17:50:19 10° E 17:56:28 44° SSE 18:02:39 10° SW
CBERS-1 4.1 17:57:44 72° ESE 17:57:44 72° ESE 18:02:53 10° S
NOSS 3-2 (A) 4.1 17:56:08 52° WNW 17:58:19 73° SW 18:05:58 10° SSE
Cosmos 2082 Rocket 3.3 17:54:48 10° S 18:00:12 41° ESE 18:03:24 22° ENE
ATLAS 3B R/B 3.0 18:00:25 52° NNE 18:01:35 58° ENE 18:08:51 10° SE
Nadezhda 1 Rocket 4.2 18:02:44 51° W 18:02:55 52° W 18:08:55 10° S
Cosmos 1626 Rocket 4.2 17:59:11 10° S 18:02:48 52° SE 18:02:48 52° SE
Cosmos 2181 Rocket 4.2 18:03:14 55° NE 18:04:17 63° E 18:10:32 10° SSE
Meteor 1-24 Rocket 3.6 17:59:57 10° S 18:05:45 89° E 18:06:05 80° NNE
Resurs 1-4 Rocket 2.4 18:08:14 54° WSW 18:08:14 54° WSW 18:12:48 10° SSW
Cosmos 1626 3.6 18:09:31 10° S 18:12:21 36° SE 18:12:21 36° SE
IRS-1C 4.3 18:14:34 60° NE 18:15:24 71° ESE 18:20:48 10° S
Cosmos 1833 Rocket 2.6 18:12:31 10° SSW 18:18:14 83° ESE 18:19:07 64° NE
IRS-1D 3.4 18:20:12 82° WNW 18:20:12 82° WNW 18:25:31 10° SSW
Meteor 1-22 Rocket 4.4 18:22:20 58° WNW 18:22:55 61° WSW 18:29:03 10° S
NOSS 3-3 (A) 3.7 18:19:42 10° SW 18:26:10 79° WNW 18:27:13 61° N
NOSS 3-3 (C) 3.7 18:19:51 10° SW 18:26:18 79° WNW 18:27:22 61° N
Meteor 2-17 Rocket 4.4 18:24:30 10° SSW 18:30:37 67° W 18:31:22 61° NW
Cosmos 2285 Rocket 4.5 18:26:10 10° SSW 18:31:58 42° W 18:31:58 42° W
Cosmos 1777 Rocket 3.9 18:30:39 10° SSW 18:36:01 78° WNW 18:36:24 73° NNW
ARIANE 5 R/B 2.6 18:35:08 52° NNE 18:36:26 77° ESE 18:41:46 10° S
Cosmos 2278 Rocket 2.9 18:36:18 38° W 18:37:12 41° WSW 18:42:36 10° S
CZ-2D R/B 3.2 18:41:36 30° W 18:41:36 30° W 18:45:42 10° SW
NOSS 3-2 (C) 4.3 18:38:06 38° WNW 18:41:24 61° SW 18:48:56 10° SSE
ERS-2 2.9 18:40:07 10° SSE 18:43:31 46° E 18:43:31 46° E
ATLAS CENTAUR R/B 3.3 18:43:19 10° SSW 18:47:10 32° SE 18:51:15 10° ENE
Cosmos 1602 Rocket 4.1 18:45:04 10° SSW 18:48:40 46° WSW 18:48:40 46° WSW
Cosmos 1470 3.3 18:50:55 51° SW 18:50:55 51° SW 18:54:22 10° S
Cosmos 2228 3.7 18:49:30 42° NE 18:50:24 50° E 18:54:44 10° SSE
IRS-P3 4.4 18:52:09 46° W 18:52:12 46° W 18:57:26 10° SSW
SJ 16-02 4.0 18:49:51 10° SSE 18:53:06 19° ESE 18:56:20 10° ENE
Cosmos 1758 Rocket 3.6 18:50:35 10° S 18:54:59 74° E 18:55:49 56° NE
Cosmos 44 Rocket 3.4 18:55:47 54° W 18:56:31 61° SW 19:01:32 10° SSE
Cosmos 864 Rocket 4.4 18:51:07 10° S 18:57:24 78° W 18:59:48 40° N
Cosmos 2341 Rocket 4.5 18:52:00 10° SSW 18:57:52 41° W 18:58:47 38° WNW
Cosmos 1726 Rocket 4.0 18:58:08 44° NNE 18:59:17 58° E 19:03:45 10° SSE
IDEFIX/ARIANE 42P 4.2 18:56:39 10° NE 19:01:18 33° ESE 19:06:02 10° S
SL-16 R/B 3.5 18:59:58 10° SSE 19:05:56 42° E 19:10:27 17° NNE
deb Chang Zheng 4 3.6 19:06:00 57° WNW 19:06:02 57° W 19:10:23 10° SSW
USA 215 4.3 19:00:07 10° SE 19:06:07 38° SSW 19:11:00 15° W
Cosmos 2369 Rocket 3.5 19:07:27 18° NNE 19:10:51 33° ENE 19:15:56 10° SE
Cosmos 1953 2.4 19:10:47 58° W 19:10:54 59° W 19:14:59 10° S
Cosmos 2297 3.7 19:09:17 44° NW 19:11:01 69° WSW 19:16:42 10° SSE
Cosmos 1242 Rocket 2.4 19:07:27 10° S 19:11:07 89° W 19:11:14 84° N
Cosmos 1763 Rocket 4.3 19:11:02 26° NNE 19:13:32 46° ENE 19:18:33 10° SSE
Cosmos 468 Rocket 4.2 19:16:05 34° N 19:18:20 67° ENE 19:23:38 10° SSE
ADEOS II 2.6 19:20:19 37° WNW 19:20:59 38° W 19:25:57 10° SSW
Meteor 1-16 Rocket 4.3 19:19:26 30° N 19:22:34 86° E 19:28:35 10° S
Meteor 1-21 Rocket 4.4 19:22:49 10° SSW 19:28:39 58° W 19:31:39 29° NNW
Cosmos 1726 2.0 19:28:02 52° NNW 19:28:53 87° W 19:32:42 10° S
CZ-4C R/B 4.2 19:25:12 10° S 19:28:58 36° WSW 19:29:36 34° W
CZ-2D R/B 3.8 19:28:33 44° NW 19:29:18 49° W 19:33:30 10° SSW
Cosmos 1271 Rocket 3.9 19:26:45 10° SSW 19:29:30 27° WSW 19:29:30 27° WSW
Cosmos 1898 Rocket 3.8 19:27:46 10° SSW 19:33:00 67° ESE 19:38:10 10° NNE
Cosmos 1570 Rocket 4.3 19:31:57 24° N 19:35:02 64° ENE 19:40:18 10° SSE
SL-27 R/B 3.2 19:31:35 10° S 19:35:05 52° ESE 19:38:29 10° NNE
CZ-2C R/B 3.0 19:35:58 39° NNW 19:37:10 56° W 19:41:15 10° SSW
CENTAUR R/B 3.7 19:32:31 20° WNW 19:37:21 39° SW 19:43:47 10° SSE
USA 267 3.2 19:32:47 10° NE 19:39:16 63° NW 19:45:50 10° SW
Cosmos 1943 Rocket 2.3 19:37:49 24° N 19:41:13 71° ENE 19:46:47 10° SSE
Cosmos 2082 Rocket 3.1 19:39:15 10° SW 19:44:04 29° WNW 19:45:10 27° WNW
Meteor 2-12 Rocket 4.4 19:38:06 10° SSW 19:44:14 70° W 19:49:30 14° N
Cosmos 1937 Rocket 4.1 19:39:07 10° SSW 19:44:26 61° ESE 19:49:38 10° NNE
H-2A R/B 3.1 19:40:36 10° SSE 19:44:53 45° E 19:48:48 12° N
Cosmos 1821 Rocket 3.9 19:39:25 10° S 19:45:43 80° W 19:51:51 10° N
Meteor 1-11 4.4 19:41:11 10° S 19:46:53 75° E 19:52:31 10° NNE
RUBIN 8/PSLV 4.5 19:44:53 21° N 19:47:43 68° WNW 19:52:05 10° SSW
ADEOS 3.6 19:44:15 10° NNE 19:49:30 84° ESE 19:54:49 10° SSW
Cosmos 1703 3.2 19:46:42 10° S 19:50:46 78° W 19:53:39 18° N
H-2A R/B 3.9 19:46:52 10° NE 19:50:49 40° ESE 19:54:41 10° S
ATLAS 3B R/B 3.8 19:47:39 17° W 19:52:41 36° SW 19:59:28 10° SSE
GP-B 3.6 19:51:57 10° S 19:56:27 62° E 20:00:53 10° N
MOZ.5/SAFIR/RUBIN 5/SL-8 4.0 19:52:12 10° S 19:56:49 56° WSW 19:59:32 23° NW
Cosmos 1300 4.0 19:56:37 10° NNE 20:00:13 39° E 20:03:53 10° SSE
PSLV R/B 3.5 19:57:34 10° N 20:01:57 82° WNW 20:06:25 10° SSW
Cosmos 192 4.3 19:58:57 22° NNW 20:02:11 74° WSW 20:07:11 10° SSE
deb Kosmos-1763 4.3 20:00:47 10° SSW 20:04:23 47° WNW 20:07:19 14° N
UNK 4.1 20:00:39 10° S 20:05:11 51° WSW 20:08:06 20° NW
CZ-2C R/B 3.2 20:03:44 10° NNE 20:08:10 50° ESE 20:12:42 10° S
CZ-4B R/B 4.2 20:09:27 10° ESE 20:11:13 14° E 20:12:56 10° NE
ARIANE 5 R/B 4.4 20:15:28 12° W 20:16:06 13° W 20:18:23 10° WSW
Cosmos 1908 4.0 20:14:02 21° NW 20:16:10 36° WSW 20:19:53 10° S
ERS-2 4.4 20:15:20 10° SW 20:16:52 12° WSW 20:18:09 11° W
Cosmos 1656 Rocket 4.4 20:14:02 10° N 20:19:26 54° ENE 20:24:58 10° SSE
PSLV R/B 3.6 20:18:53 23° NNW 20:19:55 32° NNE 20:22:18 10° E
Cosmos 2208 Rocket 4.3 20:19:20 15° NW 20:23:48 57° WSW 20:29:13 10° S
ATLAS CENTAUR R/B 2.4 20:22:16 10° SW 20:26:02 29° WNW 20:30:01 10° N
COSMOS 2441 4.3 20:21:31 10° N 20:26:18 71° WNW 20:31:12 10° SSW
CZ-4B R/B 3.9 20:25:08 10° NNE 20:29:08 54° ESE 20:33:24 10° S
Cosmos 2298 Rocket 4.4 20:24:55 10° SSW 20:30:20 70° ESE 20:35:40 10° NNE
SJ 16-02 1.8 20:27:39 10° SSW 20:31:52 40° WNW 20:36:01 10° N
MSX 4.0 20:28:10 10° N 20:33:49 54° W 20:39:33 10° SSW
Alouette 2 Rocket 4.3 20:31:45 14° NW 20:34:16 29° WSW 20:37:55 10° S
Meteor 1-31 Rocket 3.2 20:32:20 10° NNE 20:36:17 68° ESE 20:40:17 10° S
Cosmos 1812 Rocket 3.6 20:34:16 10° NNW 20:38:35 62° W 20:42:59 10° S
IDEFIX/ARIANE 42P 3.4 20:36:18 10° NNW 20:40:52 30° W 20:45:30 10° SW
[s.n.44775] 2.2 20:41:27 10° SW 20:43:58 69° NW 20:46:26 10° NE
Starlink Launch 2 leader 2.2 20:42:07 10° SW 20:44:38 65° NW 20:47:08 10° NE
SL-08 R/B 3.4 20:41:31 10° S 20:46:09 59° WSW 20:50:42 10° NNW
[s.n.44745] 2.2 20:43:50 10° WSW 20:46:21 63° NW 20:48:49 10° NE
Cosmos 1934 Rocket 4.5 20:41:54 10° SSW 20:47:35 40° W 20:53:17 10° NNW
CZ-4C R/B 3.3 20:44:19 10° S 20:47:41 50° WSW 20:51:06 10° NNW
[s.n.44773] 2.3 20:45:46 10° WSW 20:48:16 59° NW 20:50:43 10° NE
Starlink Launch 2 trailer 2.3 20:45:49 10° WSW 20:48:19 57° NW 20:50:47 10° NE
SL-16 R/B 3.5 20:43:51 10° S 20:49:21 32° WSW 20:54:49 10° NW
SAR-Lupe-4 4.5 20:47:18 10° S 20:50:39 34° WSW 20:53:56 10° NW
Cosmos 1455 4.2 20:47:22 10° NNE 20:50:49 31° E 20:54:19 10° SSE
Cosmos 1689 Rocket 4.5 20:48:29 10° SE 20:51:03 24° E 20:53:34 10° NNE
[s.n.44749] 2.4 20:48:29 10° WSW 20:51:03 55° NW 20:53:34 10° NE
[s.n.44774] 2.4 20:50:08 10° WSW 20:52:37 51° NW 20:55:04 10° NE
Cosmos 2369 Rocket 3.1 20:49:34 10° NW 20:54:47 36° WSW 21:00:05 10° S
Meteor 1-28 Rocket 3.9 20:51:32 10° SSE 20:55:23 58° E 20:59:10 10° N
[s.n.44755] 2.7 20:54:26 10° WSW 20:57:00 46° NW 20:59:32 10° NNE
[s.n.44760] 2.7 20:54:47 10° WSW 20:57:21 46° NW 20:59:54 10° NNE
[s.n.44727] 2.7 20:55:09 10° WSW 20:57:43 45° NW 21:00:17 10° NNE
[s.n.44747] 2.7 20:55:21 10° WSW 20:57:55 45° NW 21:00:27 10° NNE
[s.n.44761] 2.7 20:55:46 10° WSW 20:58:20 44° NW 21:00:53 10° NNE
[s.n.44759] 2.7 20:56:09 10° WSW 20:58:44 44° NW 21:01:16 10° NNE
Cosmos 841 Rocket 4.3 20:54:13 10° NW 20:58:54 34° WSW 21:03:40 10° S
[s.n.44714] 2.7 20:56:25 10° WSW 20:58:58 43° NW 21:01:29 10° NNE
[s.n.44732] 2.8 20:56:23 10° WSW 20:58:59 44° NW 21:01:32 10° NNE
[s.n.44733] 2.8 20:56:29 10° WSW 20:59:04 43° NW 21:01:36 10° NNE
[s.n.44767] 2.8 20:56:29 10° WSW 20:59:05 44° NW 21:01:38 10° NNE
[s.n.44724] 2.8 20:56:39 10° WSW 20:59:13 43° NW 21:01:45 10° NNE
[s.n.44726] 2.8 20:56:39 10° WSW 20:59:13 43° NW 21:01:45 10° NNE
[s.n.44718] 2.8 20:56:41 10° WSW 20:59:17 43° NW 21:01:50 10° NNE
[s.n.44716] 2.8 20:56:47 10° WSW 20:59:21 43° NW 21:01:54 10° NNE
[s.n.44731] 2.8 20:56:50 10° WSW 20:59:25 43° NW 21:01:59 10° NNE
[s.n.44719] 2.8 20:56:52 10° WSW 20:59:27 43° NW 21:02:01 10° NNE
[s.n.44758] 2.8 20:56:53 10° WSW 20:59:28 43° NW 21:02:01 10° NNE
[s.n.44715] 2.8 20:56:59 10° WSW 20:59:34 43° NW 21:02:07 10° NNE
